Ouarzazate, Morocco

7:06 PM WEST on April 23, 2017 (GMT +0100)
Ouarzazate

Weather History for GMMZ - February, 2013

Change the Weather History Date:

Tuesday, February 19, 2013

  Actual Average Record
Temperature  
Mean Temperature 53 °F -  
Max Temperature 60 °F 70 °F - ()
Min Temperature 46 °F 43 °F - ()
Degree Days  
Heating Degree Days 12    
Growing Degree Days 3 (Base 50)    
Moisture  
Dew Point 31 °F    
Average Humidity 44    
Maximum Humidity 71    
Minimum Humidity 22    
Precipitation  
Precipitation 0.00 in 0.01 in - ()
Sea Level Pressure  
Sea Level Pressure 29.81 in    
Wind  
Wind Speed 6 mph ()    
Max Wind Speed 25 mph    
Max Gust Speed -    
Visibility 7.5 miles    
Events      
T = Trace of Precipitation, MM = Missing Value Source: Averaged Metar Reports

Daily Weather History Graph

Daily Weather History Graph

Search for Another Location

Airport or City:

Trip Planner

Search our weather history database for the weather conditions in past years. The results will help you decide how hot, cold, wet, or windy it might be!

Date:

Astronomy

Feb. 19, 2013 Rise Set
Actual Time 7:04 AM WET 6:18 PM WET
Civil Twilight 6:40 AM WET 6:43 PM WET
Nautical Twilight 6:11 AM WET 7:11 PM WET
Astronomical Twilight 5:43 AM WET 7:39 PM WET
Moon 12:51 PM WET (2/19) 2:13 AM WET (2/19)
Length of Visible Light 12h 02m
Length of Day
11h 13m
Waxing Gibbous, 65% of the Moon is Illuminated
Feb 19
Waxing Gibbous
Feb 25
Full
Mar 4
Last Quarter
Mar 11
New
Mar 19
First Quarter

Hourly Weather History & Observations

Time (WET) Temp. Windchill Dew Point Humidity Pressure Visibility Wind Dir Wind Speed Gust Speed Precip Events Conditions
12:00 AM 51.8 °F - 30.2 °F 44% 29.92 in 6.2 mi West 6.9 mph - N/A   Mostly Cloudy
1:00 AM 51.8 °F - 30.2 °F 44% 29.89 in 6.2 mi SW 6.9 mph - N/A   Partly Cloudy
3:00 AM 52 °F - 29 °F 29%  in 12 mi SW 2.3 mph - -   Scattered Clouds
3:00 AM 51.8 °F - 30.2 °F 44% 29.86 in 6.2 mi SW 2.3 mph - N/A   Partly Cloudy
4:00 AM 51.8 °F - 32.0 °F 47% 29.83 in 6.2 mi South 6.9 mph - N/A   Partly Cloudy
5:00 AM 50.0 °F - 33.8 °F 54% 29.83 in 6.2 mi SE 9.2 mph - N/A   Mostly Cloudy
6:00 AM 49 °F - 34 °F 45%  in 12 mi South 4.6 mph - -   Partly Cloudy
6:00 AM 48.2 °F - 33.8 °F 58% 29.83 in 6.2 mi South 4.6 mph - N/A   Mostly Cloudy
7:00 AM 48.2 °F - 35.6 °F 62% 29.83 in 6.2 mi Calm Calm - N/A   Mostly Cloudy
8:00 AM 46.4 °F 41.9 °F 37.4 °F 71% 29.80 in 6.2 mi NNE 9.2 mph - N/A   Mostly Cloudy
9:00 AM 49 °F - 37 °F 52%  in 12 mi NNE 6.9 mph - -   Partly Cloudy
9:00 AM 50.0 °F - 37.4 °F 62% 29.83 in 6.2 mi NNE 8.1 mph - N/A   Mostly Cloudy
10:00 AM 50.0 °F - 35.6 °F 58% 29.83 in 6.2 mi NE 4.6 mph - N/A   Mostly Cloudy
11:00 AM 51.8 °F - 35.6 °F 54% 29.83 in 6.2 mi Variable 3.5 mph - N/A   Scattered Clouds
12:00 PM 55 °F - 32 °F 29%  in 12 mi SSW 3.5 mph - -   Partly Cloudy
12:00 PM 55.4 °F - 32.0 °F 41% 29.80 in 6.2 mi Variable 3.5 mph - N/A   Scattered Clouds
2:00 PM 59.0 °F - 26.6 °F 29% 29.71 in 6.2 mi Variable 2.3 mph - N/A   Partly Cloudy
3:00 PM 53 °F - 35 °F 38%  in 6 mi WNW 25.3 mph - -   Mostly Cloudy
3:00 PM 51.8 °F - 33.8 °F 50% 29.74 in 6.2 mi WNW 25.3 mph - N/A   Partly Cloudy
5:00 PM 57.2 °F - 28.4 °F 33% 29.74 in 6.2 mi NNW 10.4 mph - N/A   Scattered Clouds
6:00 PM 55 °F - 27 °F 22%  in 12 mi WNW 17.3 mph - -   Partly Cloudy
6:00 PM 55.4 °F - 26.6 °F 33% 29.74 in 6.2 mi WNW 17.3 mph - N/A   Scattered Clouds
7:00 PM 51.8 °F - 26.6 °F 38% 29.77 in 6.2 mi WNW 9.2 mph - N/A   Partly Cloudy
8:00 PM 50.0 °F - 28.4 °F 43% 29.80 in 6.2 mi WNW 4.6 mph - N/A   Partly Cloudy
9:00 PM 49 °F - 27 °F 29%  in 12 mi West 8.1 mph - -   Scattered Clouds
9:00 PM 48.2 °F - 26.6 °F 43% 29.83 in 6.2 mi West 8.1 mph - N/A   Partly Cloudy
11:00 PM 48.2 °F - 26.6 °F 43% 29.86 in 6.2 mi Variable 1.2 mph - N/A   Partly Cloudy